Stations météo

Publicité
Grenoble/St.Geoirs, France (7486): Température de l'air & dewpoint: 17.02.2019 23:00:00 - 23.02.2019 23:00:00 (CET)Grenoble/St.Geoirs, France (7486): Température de l'air 5cm: 17.02.2019 23:00:00 - 23.02.2019 23:00:00 (CET)Grenoble/St.Geoirs, France (7486): Température de l'air -20cm & Température de l'air -100cm: 17.02.2019 23:00:00 - 23.02.2019 23:00:00 (CET)Grenoble/St.Geoirs, France (7486): Vitesse du vent & gusts: 17.02.2019 23:00:00 - 23.02.2019 23:00:00 (CET)Grenoble/St.Geoirs, France (7486): Direction du vent: 17.02.2019 23:00:00 - 23.02.2019 23:00:00 (CET)Grenoble/St.Geoirs, France (7486): reduced air pressure: 17.02.2019 23:00:00 - 23.02.2019 23:00:00 (CET)Grenoble/St.Geoirs, France (7486): visibility: 17.02.2019 23:00:00 - 23.02.2019 23:00:00 (CET)Grenoble/St.Geoirs, France (7486): Ensoleillement: 17.02.2019 23:00:00 - 23.02.2019 23:00:00 (CET)Grenoble/St.Geoirs, France (7486): Quantités de précipitations: 17.02.2019 23:00:00 - 23.02.2019 23:00:00 (CET)
Date & Time tt [°C] td [°C] tt 5cm [°C] tt -20cm [°C] tt -100cm [°C] ff [km/h] ff [knt] fx [km/h] fx [knt] dd ppp [hPa] vv [km] sd [min] rr [mm]
23.02.2019 23:00:00 2,6 0,3 -0,6 6,4 6,6 7 4 12 7 E 1032,0 7 0 0,0
23.02.2019 22:00:00 3,5 1,0 1,2 6,3 6,6 8 4 13 7 E 1031,7 6 0 0,0
23.02.2019 21:00:00 5,3 1,6 0,4 6,3 6,6 8 4 11 6 SE 1031,1 9 0 0,0
23.02.2019 20:00:00 6,5 1,8 0,6 6,2 6,6 5 3 14 7 SSE 1030,5 9 0 0,0
23.02.2019 19:00:00 8,1 3,0 2,5 6,1 6,6 6 3 15 8 NNW 1030,1 11 0 0,0
23.02.2019 18:00:00 10,9 3,2 10,1 6,0 6,6 13 7 20 11 N 1029,0 18 54 0,0
23.02.2019 17:00:00 12,5 2,9 15,7 5,9 6,6 9 5 22 12 N 1028,2 17 60 0,0
23.02.2019 16:00:00 12,6 2,7 16,2 5,7 6,5 16 9 26 14 NNE 1028,7 16 60 0,0
23.02.2019 15:00:00 12,6 3,0 18,1 5,6 6,5 12 7 23 12 NNE 1028,7 14 60 0,0
23.02.2019 14:00:00 12,4 4,6 17,9 5,6 6,5 13 7 28 15 N 1028,8 12 60 0,0
23.02.2019 13:00:00 11,7 3,7 15,5 5,6 6,5 11 6 23 12 E 1029,5 13 60 0,0
23.02.2019 12:00:00 10,4 3,7 12,9 5,6 6,5 15 8 29 15 NE 1030,4 5 60 0,0
23.02.2019 11:00:00 9,0 4,0 10,9 5,7 6,5 15 8 25 14 NNE 1030,7 10 60 0,0
23.02.2019 10:00:00 6,1 4,4 6,2 5,7 6,5 6 3 12 7 SW 1030,9 8 60 0,0
23.02.2019 09:00:00 3,2 2,5 -2,0 5,8 6,5 5 3 11 6 SSW 1031,2 2,8 60 0,0
23.02.2019 08:00:00 0,4 -0,3 -3,7 5,9 6,5 6 3 11 6 S 1031,5 2,1 9 0,0
23.02.2019 07:00:00 -0,2 -0,9 -3,0 6,0 6,5 5 3 11 6 E 1031,5 0,3 0 0,0
23.02.2019 06:00:00 0,3 -0,4 -3,7 6,0 6,5 7 4 11 6 ENE 1031,5 0,1 0 0,0
23.02.2019 05:00:00 -0,9 -2,0 -4,1 6,1 6,5 5 3 10 5 E 1031,9 0,3 0 0,0
23.02.2019 04:00:00 0,1 -1,0 -3,2 6,1 6,5 6 4 14 8 SE 1031,9 0,3 0 0,0
23.02.2019 03:00:00 2,3 1,3 -2,2 6,2 6,5 3 2 11 6 NE 1031,9 2,5 0 0,0
23.02.2019 02:00:00 4,2 2,4 -1,8 6,2 6,5 0 0 12 6 N 1031,7 4,1 0 0,0
23.02.2019 01:00:00 5,5 3,0 0,3 6,2 6,5 8 4 13 7 NNE 1031,6 10 0 0,0
23.02.2019 00:00:00 6,4 4,6 1,6 6,2 6,5 8 4 15 8 W 1031,3 12 0 0,0
22.02.2019 23:00:00 7,3 4,6 3,1 6,2 6,5 4 2 24 13 SSE 1031,1 15 0 0,0
22.02.2019 22:00:00 9,1 5,3 3,9 6,2 6,5 18 10 28 15 N 1030,3 19 0 0,0
22.02.2019 21:00:00 10,1 5,5 5,3 6,1 6,5 9 5 18 10 NNW 1030,0 25 0 0,0
22.02.2019 20:00:00 11,2 5,5 9,5 6,0 6,5 10 6 31 17 N 1029,8 30 0 0,0
22.02.2019 19:00:00 12,1 5,3 9,9 5,9 6,5 12 6 32 17 N 1029,5 30 0 0,0
22.02.2019 18:00:00 13,5 5,6 12,9 5,8 6,5 17 9 38 21 NNW 1029,0 26 52 0,0
22.02.2019 17:00:00 14,6 5,9 16,6 5,6 6,5 22 12 38 21 NNW 1029,0 22 60 0,0
22.02.2019 16:00:00 15,5 5,4 19,1 5,5 6,5 25 14 37 20 NNW 1029,0 19 60 0,0
22.02.2019 15:00:00 15,4 5,9 19,8 5,4 6,5 21 11 40 21 N 1029,2 18 60 0,0
22.02.2019 14:00:00 14,8 4,5 19,1 5,3 6,4 20 11 35 19 NNW 1029,5 18 60 0,0
22.02.2019 13:00:00 13,2 4,6 16,2 5,3 6,4 14 8 28 15 NE 1030,4 15 60 0,0
22.02.2019 12:00:00 11,3 3,3 14,7 5,3 6,4 13 7 30 16 NNE 1031,4 12 60 0,0
22.02.2019 11:00:00 10,8 2,9 12,2 5,4 6,4 10 5 25 13 N 1031,8 10 60 0,0
22.02.2019 10:00:00 8,1 2,5 8,9 5,4 6,4 6 3 11 6 S 1032,2 12 60 0,0
22.02.2019 09:00:00 5,6 1,1 -1,8 5,5 6,4 8 4 14 7 NNE 1032,4 11 50 0,0
22.02.2019 08:00:00 1,6 -0,3 -2,8 5,6 6,4 4 2 8 4 WNW 1032,8 11 0 0,0
22.02.2019 07:00:00 1,2 -0,7 -0,9 5,6 6,4 7 4 22 12 S 1032,4 8 0 0,0
22.02.2019 06:00:00 0,7 -0,6 -2,3 5,7 6,4 8 4 11 6 E 1032,4 7 0 0,0
22.02.2019 05:00:00 0,6 -1,2 -2,5 5,8 6,4 8 4 15 8 E 1032,1 7 0 0,0
22.02.2019 04:00:00 0,9 -1,2 -2,2 5,8 6,4 6 3 13 7 E 1032,5 9 0 0,0
22.02.2019 03:00:00 1,9 0,0 -1,0 5,9 6,4 8 5 16 8 E 1032,5 10 0 0,0
22.02.2019 02:00:00 0,9 -1,0 -1,1 5,9 6,4 8 4 11 6 E 1032,9 8 0 0,0
22.02.2019 01:00:00 1,9 -0,2 -0,8 6,0 6,4 6 4 14 7 SE 1032,9 8 0 0,0
22.02.2019 00:00:00 2,6 0,5 -0,8 6,0 6,4 7 4 13 7 ESE 1032,3 8 0 0,0
21.02.2019 23:00:00 2,4 -1,0 -0,7 6,0 6,4 8 4 11 6 E 1032,3 9 0 0,0
21.02.2019 22:00:00 4,6 0,9 1,6 6,0 6,4 8 4 15 8 E 1031,7 8 0 0,0
21.02.2019 21:00:00 5,8 1,5 1,7 5,9 6,4 8 5 12 7 ESE 1031,2 11 0 0,0
21.02.2019 20:00:00 7,2 1,7 2,8 5,8 6,4 8 5 15 8 ESE 1030,3 11 0 0,0
21.02.2019 19:00:00 10,6 2,7 4,1 5,7 6,4 6 3 13 7 NE 1029,6 16 0 0,0
21.02.2019 18:00:00 12,8 2,9 10,1 5,6 6,4 7 4 13 7 N 1028,9 17 51 0,0
21.02.2019 17:00:00 14,7 4,4 17,8 5,4 6,4 9 5 16 9 N 1028,2 20 60 0,0
21.02.2019 16:00:00 16,1 2,8 22,4 5,2 6,4 6 3 13 7 NNW 1027,9 20 60 0,0
21.02.2019 15:00:00 15,8 3,2 23,5 5,2 6,4 5 3 11 6 NW 1028,0 11 60 0,0
21.02.2019 14:00:00 15,4 2,2 20,1 5,1 6,3 4 2 14 8 W 1028,3 20 60 0,0
21.02.2019 13:00:00 13,7 1,7 17,1 5,1 6,4 8 5 20 11 E 1028,8 20 60 0,0
21.02.2019 12:00:00 12,0 0,4 13,8 5,1 6,4 13 7 24 13 E 1029,5 25 60 0,0
21.02.2019 11:00:00 9,9 1,0 10,2 5,1 6,4 16 8 24 13 ENE 1029,8 20 60 0,0
21.02.2019 10:00:00 7,6 0,6 7,2 5,2 6,4 15 8 23 13 ENE 1029,9 20 60 0,0
21.02.2019 09:00:00 5,1 0,8 1,2 5,3 6,4 14 8 24 13 E 1030,0 20 60 0,0
21.02.2019 08:00:00 1,3 -1,3 -0,2 5,3 6,4 18 10 23 12 E 1030,3 18 6 0,0
21.02.2019 07:00:00 3,0 -0,8 -0,6 5,4 6,4 17 9 23 12 ENE 1029,6 20 0 0,0
21.02.2019 06:00:00 0,8 -1,8 -1,3 5,5 6,4 19 10 22 12 E 1029,8 19 0 0,0
21.02.2019 05:00:00 0,1 -2,0 -1,5 5,5 6,3 14 8 19 10 E 1029,7 17 0 0,0
21.02.2019 04:00:00 0,1 -2,1 -1,4 5,6 6,4 16 9 18 10 E 1029,7 17 0 0,0
21.02.2019 03:00:00 0,7 -1,5 -0,7 5,6 6,4 16 9 19 10 E 1029,5 14 0 0,0
21.02.2019 02:00:00 1,0 -0,9 -1,0 5,7 6,3 15 8 16 9 E 1029,3 12 0 0,0
21.02.2019 01:00:00 0,6 -1,6 -1,0 5,7 6,3 11 6 16 8 E 1029,2 9 0 0,0
21.02.2019 00:00:00 0,8 -0,7 -1,6 5,8 6,3 13 7 14 8 E 1028,8 7 0 0,0
20.02.2019 23:00:00 0,8 -0,7 -0,9 5,8 6,4 10 6 12 7 ESE 1028,4 9 0 0,0
20.02.2019 22:00:00 1,5 -0,1 -1,0 5,8 6,3 9 5 12 7 E 1028,0 8 0 0,0
20.02.2019 21:00:00 2,1 -0,5 0,3 5,7 6,3 10 5 11 6 E 1027,7 10 0 0,0
20.02.2019 20:00:00 4,0 0,9 -0,5 5,6 6,3 9 5 11 6 ESE 1027,0 9 0 0,0
20.02.2019 19:00:00 7,6 2,9 0,7 5,5 6,3 4 2 8 5 N 1026,0 15 0 0,0
20.02.2019 18:00:00 10,9 4,8 6,4 5,4 6,3 8 4 10 5 W 1024,9 19 49 0,0
20.02.2019 17:00:00 13,2 4,1 16,1 5,2 6,3 6 4 11 6 W 1024,1 20 60 0,0
20.02.2019 16:00:00 13,6 3,6 18,5 5,1 6,3 5 3 12 7 WSW 1024,2 20 60 0,0
20.02.2019 15:00:00 14,0 3,4 19,4 5,0 6,3 3 2 14 7 NNE 1024,2 19 60 0,0
20.02.2019 14:00:00 12,2 3,9 19,3 4,9 6,3 5 3 11 6 W 1024,8 19 60 0,0
20.02.2019 13:00:00 11,3 3,1 17,1 4,9 6,3 5 3 10 6 WNW 1025,1 20 60 0,0
20.02.2019 12:00:00 10,1 2,0 12,6 4,9 6,3 5 3 14 7 N 1025,6 22 60 0,0
20.02.2019 11:00:00 8,4 1,3 8,2 5,0 6,3 10 5 19 10 E 1025,8 16 60 0,0
20.02.2019 10:00:00 5,7 0,6 3,3 5,1 6,3 16 8 19 11 E 1026,0 19 60 0,0
20.02.2019 09:00:00 1,9 -0,5 -1,0 5,1 6,3 12 7 18 10 E 1026,4 18 50 0,0
20.02.2019 08:00:00 -0,8 -2,7 -2,3 5,2 6,3 15 8 18 10 E 1026,4 17 5 0,0
20.02.2019 07:00:00 -0,7 -3,1 -2,8 5,3 6,3 14 8 19 10 E 1025,7 20 0 0,0
20.02.2019 06:00:00 -1,5 -3,5 -2,7 5,4 6,3 16 9 18 10 E 1025,8 19 0 0,0
20.02.2019 05:00:00 -1,0 -3,4 -2,4 5,5 6,3 15 8 18 10 E 1025,5 17 0 0,0
20.02.2019 04:00:00 -0,7 -2,6 -2,9 5,5 6,2 14 8 16 9 E 1025,4 16 0 0,0
20.02.2019 03:00:00 -0,7 -2,4 -2,4 5,6 6,2 13 7 16 9 E 1025,6 16 0 0,0
20.02.2019 02:00:00 0,2 -1,2 -1,9 5,6 6,2 15 8 16 9 E 1025,3 13 0 0,0
20.02.2019 01:00:00 -0,1 -1,5 -2,3 5,7 6,2 12 7 14 8 E 1025,2 10 0 0,0
20.02.2019 00:00:00 0,3 -0,8 -2,0 5,7 6,2 12 6 13 7 E 1024,9 8 0 0,0
19.02.2019 23:00:00 0,0 -1,4 -2,0 5,7 6,2 10 5 13 7 E 1025,0 10 0 0,0
19.02.2019 22:00:00 1,3 -0,8 -1,0 5,7 6,2 10 6 14 7 E 1024,6 11 0 0,0
19.02.2019 21:00:00 1,8 -0,1 -1,0 5,7 6,2 11 6 13 7 E 1024,3 12 0 0,0
19.02.2019 20:00:00 2,8 0,5 -1,4 5,6 6,2 9 5 13 7 ESE 1023,8 13 0 0,0
19.02.2019 19:00:00 6,5 2,2 -0,5 5,5 6,2 2 1 7 4 NNW 1022,9 23 0 0,0
19.02.2019 18:00:00 9,7 3,9 5,3 5,4 6,2 6 3 14 7 W 1021,8 33 48 0,0
19.02.2019 17:00:00 11,6 3,1 13,8 5,2 6,2 7 4 15 8 W 1021,7 36 60 0,0
19.02.2019 16:00:00 12,7 2,8 17,1 5,1 6,2 7 4 17 9 SW 1021,7 41 60 0,0
19.02.2019 15:00:00 12,0 3,2 19,0 5,0 6,2 8 4 16 9 WNW 1022,3 22 60 0,0
19.02.2019 14:00:00 11,8 3,0 18,6 5,0 6,2 8 5 16 8 W 1022,7 51 60 0,0
19.02.2019 13:00:00 10,9 3,0 17,1 5,0 6,2 9 5 18 10 WNW 1023,5 34 60 0,0
19.02.2019 12:00:00 10,2 2,1 12,2 5,0 6,2 4 2 18 10 ENE 1024,1 20 60 0,0
19.02.2019 11:00:00 8,5 0,9 9,1 5,0 6,1 13 7 23 12 ENE 1024,3 20 60 0,0
19.02.2019 10:00:00 6,5 1,2 5,8 5,1 6,2 18 10 24 13 E 1024,5 17 60 0,0
19.02.2019 09:00:00 3,8 -0,4 -0,2 5,2 6,2 15 8 22 12 ENE 1024,9 17 60 0,0
19.02.2019 08:00:00 0,1 -2,3 -2,0 5,2 6,1 18 10 21 11 E 1024,9 18 3 0,0
19.02.2019 07:00:00 -0,7 -2,9 -2,6 5,4 6,2 14 7 18 10 E 1024,8 17 0 0,0
19.02.2019 06:00:00 -0,1 -1,8 -2,3 5,4 6,1 14 8 19 10 ENE 1024,5 13 0 0,0
19.02.2019 05:00:00 0,0 -1,3 -2,4 5,5 6,1 15 8 18 10 E 1024,3 12 0 0,0
19.02.2019 04:00:00 -0,6 -2,5 -2,5 5,5 6,1 11 6 18 10 E 1024,6 9 0 0,0
19.02.2019 03:00:00 -0,4 -1,8 -2,1 5,6 6,1 12 7 15 8 E 1024,9 9 0 0,0
19.02.2019 02:00:00 0,2 -0,9 -2,6 5,6 6,1 9 5 13 7 ENE 1025,1 8 0 0,0
19.02.2019 01:00:00 1,9 0,4 -2,1 5,7 6,1 5 3 10 5 E 1024,8 14 0 0,0
19.02.2019 00:00:00 5,8 2,3 0,4 5,7 6,1 5 3 15 8 SW 1024,0 21 0 0,0
18.02.2019 23:00:00 6,2 1,9 1,4 5,7 6,1 7 4 23 12 SSW 1023,8 27 0 0,0
18.02.2019 22:00:00 6,6 2,1 3,7 5,7 6,1 10 5 21 11 SW 1023,9 32 0 0,0
18.02.2019 21:00:00 7,4 2,3 5,5 5,7 6,1 14 8 31 17 SW 1023,4 34 0 0,0
18.02.2019 20:00:00 7,1 2,6 3,8 5,6 6,1 17 9 26 14 WSW 1023,1 26 0 0,0
18.02.2019 19:00:00 7,7 2,0 6,0 5,5 6,1 11 6 27 15 SW 1022,6 40 0 0,0
18.02.2019 18:00:00 9,8 1,7 8,8 5,5 6,1 18 10 49 26 SW 1021,9 46 46 0,0
18.02.2019 17:00:00 11,4 1,3 12,8 5,3 6,1 31 17 52 28 SSW 1021,6 25 60 0,0
18.02.2019 16:00:00 12,1 1,7 14,3 5,2 6,1 29 15 50 27 SSW 1021,6 23 60 0,0
18.02.2019 15:00:00 12,8 2,6 15,2 5,1 6,0 29 15 46 25 SSW 1021,4 24 60 0,0
18.02.2019 14:00:00 12,9 3,3 15,5 5,1 6,1 24 13 41 22 SW 1021,7 27 60 0,0
18.02.2019 13:00:00 12,2 1,5 14,3 5,1 6,1 27 15 43 23 SSW 1022,4 29 60 0,0
18.02.2019 12:00:00 11,6 2,1 12,7 5,0 6,0 27 14 41 22 SSW 1023,0 20 60 0,0
18.02.2019 11:00:00 10,6 1,9 11,1 5,1 6,0 24 13 44 24 SSW 1023,5 38 60 0,0
18.02.2019 10:00:00 9,2 2,1 10,1 5,1 6,0 29 16 45 24 SSW 1023,9 42 60 0,0
18.02.2019 09:00:00 7,5 2,6 5,3 5,1 6,0 11 6 25 13 S 1024,2 35 60 0,0
18.02.2019 08:00:00 5,7 2,2 3,7 5,1 6,0 10 5 25 13 SSW 1024,6 15 1 0,0
18.02.2019 07:00:00 6,0 2,6 4,3 5,2 6,0 17 9 38 21 S 1024,2 13 0 0,0
18.02.2019 06:00:00 6,1 2,7 4,6 5,2 6,0 20 11 35 19 S 1024,4 29 0 0,0
18.02.2019 05:00:00 6,6 3,7 5,2 5,2 6,0 19 11 37 20 SSW 1024,6 23 0 0,0
18.02.2019 04:00:00 7,0 4,1 5,7 5,2 6,0 22 12 38 20 S 1024,9 23 0 0,0
18.02.2019 03:00:00 7,3 4,6 5,8 5,2 6,0 16 9 31 17 SSW 1025,5 20 0 0,0
18.02.2019 02:00:00 7,2 4,3 5,8 5,2 6,0 19 10 30 16 SSW 1025,9 20 0 0,0
18.02.2019 01:00:00 7,4 4,2 5,9 5,2 6,0 14 8 34 19 SSW 1025,9 21 0 0,0
18.02.2019 00:00:00 7,4 4,0 4,7 5,3 6,0 17 9 32 17 SSW 1025,9 23 0 0,0
17.02.2019 23:00:00 7,8 4,6 6,0 5,3 6,0 5 3 27 14 W 1026,1 21 0 0,0

tt = Température de l'air
td = dewpoint
tt 5cm = Température de l'air 5cm
tt -20cm = Température de l'air -20cm
tt -100cm = Température de l'air -100cm
ff = Vitesse du vent
fx = gusts
dd = Direction du vent
ppp = reduced air pressure
vv = visibility
sd = Ensoleillement
rr = Quantités de précipitations

stations d'obs. à proximité